Date,TemperatureHighF,TemperatureAvgF,TemperatureLowF,DewpointHighF,DewpointAvgF,DewpointLowF,HumidityHigh,HumidityAvg,HumidityLow,PressureMaxIn,PressureMinIn,WindSpeedMaxMPH,WindSpeedAvgMPH,GustSpeedMaxMPH,PrecipitationSumIn
2013-1-1,43.0,40.2,36.1,23.1,21.0,17.6,53,46,42,30.02,29.90,15,5,15,0.00
2013-1-2,36.0,31.8,26.2,17.7,11.6,7.8,51,43,36,30.23,29.99,15,5,15,0.00
2013-1-3,36.9,30.0,23.2,13.8,11.2,8.6,56,45,36,30.26,30.14,13,3,13,0.00
2013-1-4,40.3,34.6,28.8,18.1,15.1,12.5,54,45,38,30.20,30.08,23,7,23,0.00
2013-1-5,41.5,35.6,31.5,23.4,16.6,12.9,58,46,38,30.38,30.11,14,4,14,0.00
2013-1-6,49.3,41.5,30.9,30.8,24.1,20.3,80,52,34,30.20,30.02,15,4,15,0.00
2013-1-7,45.5,39.2,28.2,23.6,21.2,17.5,65,49,41,30.43,30.14,20,5,20,0.39
2013-1-8,35.6,28.7,25.5,24.7,20.0,17.3,77,70,64,30.41,30.38,10,2,10,0.00
2013-1-9,48.6,45.0,32.9,37.2,32.4,27.4,80,62,51,30.38,30.23,12,3,12,0.00
2013-1-10,50.0,43.2,37.8,30.2,22.9,19.1,63,45,35,30.58,30.35,15,4,15,0.00
2013-1-11,45.5,41.0,35.4,42.4,31.8,23.8,95,71,51,30.49,30.08,9,2,9,0.28
2013-1-12,56.7,47.3,42.8,44.0,42.0,39.2,96,83,59,30.17,30.08,7,1,7,0.00
2013-1-13,44.2,42.8,41.0,42.7,40.2,37.4,97,90,85,30.11,30.05,7,2,7,0.00
2013-1-14,55.9,49.6,41.2,54.4,35.7,27.4,97,60,43,30.29,30.11,13,6,13,0.24
2013-1-15,41.7,40.2,37.6,37.5,32.2,25.1,89,74,54,30.35,30.20,9,3,9,0.28
2013-1-16,40.6,39.2,36.0,37.9,36.0,32.8,90,88,87,30.23,29.84,13,2,13,0.35
2013-1-17,44.4,41.4,38.1,39.2,25.4,20.7,91,54,42,30.11,29.96,13,4,13,0.00
2013-1-18,38.5,33.2,28.6,23.5,12.3,5.9,60,42,33,30.49,30.05,20,6,20,0.00
2013-1-19,50.7,40.2,29.7,25.2,19.4,8.8,60,44,33,30.41,29.93,15,7,15,0.00
2013-1-20,55.8,43.3,34.0,26.8,19.3,8.5,59,39,24,30.08,29.79,28,8,28,0.00
2013-1-21,38.7,32.6,28.2,21.7,12.3,6.1,57,43,35,30.11,29.84,22,6,22,0.00
2013-1-22,28.6,20.1,14.9,6.5,-2.8,-6.2,40,36,33,30.29,29.93,23,11,23,0.00
2013-1-23,23.9,18.4,13.3,0.2,-3.5,-6.7,42,37,33,30.35,30.14,17,6,17,0.00
2013-1-24,26.1,20.6,15.6,8.5,2.7,-2.2,67,47,34,30.49,30.11,23,7,23,0.00
2013-1-25,24.4,20.3,16.3,12.6,3.7,-3.1,68,49,36,30.49,30.08,10,3,10,0.00
2013-1-26,32.0,25.1,20.1,13.7,11.3,8.9,69,56,43,30.41,30.08,15,4,15,0.00
2013-1-27,36.7,27.2,18.3,16.3,12.3,9.9,74,55,36,30.58,30.41,9,2,9,0.00
2013-1-28,38.7,34.3,27.9,36.0,28.8,16.1,91,81,56,30.49,30.05,10,3,10,0.12
2013-1-29,61.3,46.4,33.4,46.2,39.3,30.9,94,78,51,30.14,29.99,10,3,10,0.00
2013-1-30,68.2,54.6,43.7,59.2,51.6,39.5,100,90,64,29.99,29.23,26,5,26,1.69
2013-1-31,58.5,42.8,30.2,58.5,23.4,5.5,100,49,33,29.90,29.14,32,13,32,0.75
2013-2-1,31.1,26.8,20.1,23.2,6.5,-1.5,80,43,35,30.35,29.84,30,10,30,0.00
2013-2-2,30.7,24.0,17.4,23.3,8.3,-1.5,81,53,35,30.35,30.02,13,5,13,0.00
2013-2-3,35.1,29.2,21.4,25.0,19.6,10.2,80,68,44,30.02,29.82,18,3,18,0.04
2013-2-4,36.0,29.6,23.0,17.2,9.9,4.9,52,43,37,30.08,29.90,16,6,16,0.00
2013-2-5,37.0,33.7,30.9,27.4,22.3,17.2,81,63,52,29.93,29.87,8,2,8,0.00
2013-2-6,41.0,34.7,28.2,29.2,21.5,14.9,84,60,42,30.35,29.93,20,4,20,0.00
2013-2-7,38.3,32.6,25.5,21.7,16.8,10.9,73,53,36,30.47,30.20,13,4,13,0.00
2013-2-8,41.2,37.7,34.2,37.9,30.1,16.0,94,75,48,30.20,29.73,26,6,26,0.20
2013-2-9,37.8,31.5,26.2,16.0,11.1,8.2,53,42,36,30.38,29.87,34,11,34,0.00
2013-2-10,41.0,31.9,21.2,22.3,12.4,8.1,65,45,29,30.49,30.26,13,3,13,0.00
2013-2-11,50.9,43.3,35.2,49.2,40.0,22.1,100,89,56,30.26,29.67,14,4,14,0.35
2013-2-12,51.3,44.7,34.0,37.1,23.4,20.6,88,44,33,29.99,29.79,28,7,28,0.00
2013-2-13,44.2,35.7,27.9,31.2,24.4,19.6,85,65,43,29.96,29.67,12,2,12,0.04
2013-2-14,46.6,37.6,30.7,31.9,25.6,19.0,90,65,34,30.02,29.76,13,3,13,0.31
2013-2-15,56.5,41.9,30.0,33.0,28.1,24.2,83,61,32,30.02,29.90,20,4,20,0.12
2013-2-16,37.6,35.6,32.4,32.6,25.1,12.8,87,67,44,29.99,29.82,14,4,14,0.40
2013-2-17,32.7,28.0,23.4,16.9,7.4,0.9,67,41,34,30.17,29.79,28,12,28,0.04
2013-2-18,39.7,29.1,20.3,20.6,7.0,-0.3,62,39,29,30.35,30.14,18,6,18,0.00
2013-2-19,44.1,38.2,31.1,39.1,26.0,15.4,86,63,38,30.17,29.70,27,7,27,0.12
2013-2-20,37.2,31.3,25.2,16.2,9.2,3.3,44,39,35,30.11,29.82,25,11,25,0.00
2013-2-21,36.9,29.5,23.4,12.7,8.5,4.0,46,41,35,30.32,30.08,20,8,20,0.00
2013-2-22,34.9,31.8,28.2,28.4,16.8,9.9,81,54,45,30.38,30.23,12,4,12,0.00
2013-2-23,45.7,39.3,33.3,44.7,37.4,28.2,100,93,81,30.23,29.79,8,2,8,0.12
2013-2-24,48.4,41.4,32.5,41.9,27.7,14.0,100,63,34,30.08,29.79,24,9,24,0.00
2013-2-25,46.6,36.7,28.6,21.5,17.1,12.9,62,45,34,30.20,30.08,15,4,15,0.00
2013-2-26,43.2,36.6,28.4,41.1,28.8,19.2,97,74,49,30.23,29.64,26,6,26,0.59
2013-2-27,56.1,47.6,42.1,45.1,35.3,26.0,100,67,38,29.67,29.49,21,6,21,0.12
2013-2-28,48.2,43.2,39.2,31.9,24.4,19.5,67,48,34,29.70,29.61,17,7,17,0.00
2013-3-1,45.7,41.1,37.4,24.9,22.8,18.0,57,48,40,29.84,29.70,15,7,15,0.00
2013-3-2,39.2,35.8,32.5,21.6,16.7,14.2,53,45,41,29.87,29.79,17,7,17,0.00
2013-3-3,39.6,34.3,30.7,16.7,14.3,11.9,50,44,37,29.87,29.79,23,10,23,0.00
2013-3-4,41.7,33.6,27.0,16.0,12.0,7.9,45,41,34,29.99,29.87,31,10,31,0.00
2013-3-5,47.5,36.7,27.7,23.5,16.5,10.2,53,44,34,30.05,29.84,13,5,13,0.00
2013-3-6,39.6,36.6,34.3,34.0,30.4,20.3,95,79,49,29.96,29.67,30,12,30,0.75
2013-3-7,49.1,41.0,34.9,23.1,20.3,16.7,59,44,32,30.11,29.96,22,9,22,0.04
2013-3-8,48.9,41.3,34.3,22.3,18.8,15.5,50,40,34,30.26,30.08,30,12,30,0.00
2013-3-9,60.1,45.2,34.7,25.4,18.6,15.3,47,35,22,30.32,30.23,14,5,14,0.00
2013-3-10,59.4,45.7,30.7,31.0,22.2,17.5,70,42,20,30.32,30.23,15,4,15,0.00
2013-3-11,57.6,49.8,41.7,44.3,39.3,31.2,87,68,52,30.26,29.96,17,6,52,0.00
2013-3-12,58.8,52.3,43.0,57.2,42.3,23.1,100,72,42,29.99,29.73,20,9,20,0.94
2013-3-13,50.2,41.3,32.4,26.9,21.1,13.5,73,46,30,30.02,29.87,20,7,20,0.00
2013-3-14,43.2,36.8,31.6,14.9,12.8,10.2,47,37,31,30.08,29.99,28,12,28,0.00
2013-3-15,55.6,43.1,31.6,25.5,17.8,10.1,47,37,29,30.08,29.79,20,5,20,0.00
2013-3-16,48.7,41.9,37.4,32.4,28.2,24.1,72,58,45,29.93,29.70,17,4,17,0.00
2013-3-17,42.3,38.0,35.8,29.7,22.9,15.9,75,55,41,30.26,29.93,15,5,15,0.00
2013-3-18,38.1,36.4,34.7,35.5,23.3,12.8,92,62,40,30.32,29.87,15,5,15,0.43
2013-3-19,56.8,44.6,37.4,36.9,28.2,10.6,93,60,22,29.87,29.70,23,7,23,0.00
2013-3-20,51.8,42.4,32.9,19.3,14.3,10.8,44,32,24,29.96,29.76,23,7,23,0.00
2013-3-21,41.2,35.2,29.3,23.2,12.0,5.0,63,38,32,29.84,29.70,20,9,20,0.00
2013-3-22,45.0,34.5,28.0,17.1,11.6,4.3,45,39,32,29.90,29.82,25,9,25,0.00
2013-3-23,50.2,43.8,33.4,20.7,18.0,14.2,48,36,30,29.96,29.87,21,10,21,0.00
2013-3-24,46.2,38.2,29.3,28.0,18.0,13.9,68,45,33,29.96,29.64,15,3,15,0.00
2013-3-25,39.7,36.8,34.2,32.1,29.8,22.4,87,76,55,29.64,29.46,9,3,9,0.35
2013-3-26,44.1,36.4,32.2,31.1,28.3,22.4,84,74,44,29.87,29.61,13,2,13,0.04
2013-3-27,50.4,43.5,38.8,25.3,22.4,19.1,53,43,32,30.02,29.87,21,10,21,0.00
2013-3-28,50.4,42.9,35.4,29.3,23.0,19.8,65,46,33,30.11,29.99,17,8,17,0.00
2013-3-29,55.4,47.6,41.5,27.3,22.7,20.6,45,38,29,30.14,30.05,18,6,18,0.00
2013-3-30,59.4,46.3,33.3,27.8,23.5,18.5,71,43,25,30.14,30.02,13,3,13,0.00
2013-3-31,54.3,45.9,37.2,49.2,36.3,20.6,94,70,47,30.02,29.64,14,3,14,0.04
2013-4-1,63.9,50.3,39.2,45.6,37.8,27.9,95,68,30,29.67,29.61,25,6,25,0.00
2013-4-2,47.1,39.9,29.8,17.3,14.0,9.8,54,35,27,30.02,29.87,20,8,20,0.00
2013-4-3,49.5,39.4,29.1,16.0,11.5,5.6,46,32,19,30.31,30.02,23,7,23,0.00
2013-4-4,51.4,39.4,26.6,20.4,12.7,6.7,43,34,24,30.37,30.01,13,4,13,0.00
2013-4-5,63.9,49.3,39.2,33.7,23.0,10.9,80,43,18,30.04,29.72,15,5,15,0.04
2013-4-6,56.1,46.1,36.9,24.5,14.4,8.0,44,28,21,30.25,29.99,17,6,17,0.00
2013-4-7,65.5,52.3,41.0,37.7,31.5,24.1,65,46,33,30.22,29.90,20,7,20,0.00
2013-4-8,77.4,63.3,48.6,44.4,39.6,35.4,69,45,24,30.07,29.74,15,4,15,0.00
2013-4-9,83.5,70.8,58.8,45.4,42.6,39.9,54,38,22,30.07,29.92,17,5,17,0.00
2013-4-10,90.7,73.7,57.6,51.7,46.3,42.2,66,41,21,29.95,29.73,26,5,26,0.00
2013-4-11,69.1,66.3,64.2,53.2,52.4,51.4,67,61,54,29.91,29.82,7,2,7,0.00
2013-4-12,61.0,56.1,50.9,54.8,51.4,46.9,91,84,76,29.76,29.61,12,5,12,0.08
2013-4-13,66.7,54.7,42.8,46.7,36.6,28.4,89,55,27,29.97,29.79,16,5,16,0.08
2013-4-14,65.8,59.8,48.9,38.9,30.8,27.1,66,34,25,30.15,29.97,19,6,19,0.00
2013-4-15,62.6,57.0,53.4,44.4,39.7,35.3,66,53,44,30.30,30.15,18,4,18,0.00
2013-4-16,73.2,62.1,53.8,51.7,47.5,43.4,71,60,43,30.32,30.12,15,6,15,0.00
2013-4-17,70.7,64.1,57.7,56.2,50.4,45.0,83,63,42,30.24,30.12,20,4,20,0.00
2013-4-18,73.9,63.2,57.7,59.3,51.5,44.9,90,67,45,30.24,30.03,18,6,18,0.04
2013-4-19,74.8,65.1,54.3,63.3,57.7,44.9,94,78,55,30.03,29.61,15,6,15,0.83
2013-4-20,59.4,52.8,46.9,45.8,27.8,18.3,74,40,27,30.35,29.76,24,8,24,0.08
2013-4-21,55.4,46.6,37.9,28.1,19.5,14.4,51,34,28,30.59,30.35,15,6,15,0.00
2013-4-22,58.8,47.5,35.8,32.3,28.0,25.3,74,48,31,30.59,30.41,18,5,18,0.00
2013-4-23,63.1,52.4,45.9,38.5,34.1,28.7,69,51,34,30.41,30.15,13,5,13,0.00
2013-4-24,73.6,59.6,45.0,52.5,45.2,36.8,86,61,41,30.15,29.79,23,5,23,0.00
2013-4-25,65.1,55.3,46.0,40.2,27.7,23.6,49,35,22,30.32,29.97,26,8,26,0.00
2013-4-26,65.5,54.1,42.6,32.6,28.5,24.1,66,40,22,30.44,30.30,15,3,15,0.00
2013-4-27,69.8,56.1,39.9,35.7,30.5,25.3,72,41,24,30.47,30.30,10,3,10,0.00
2013-4-28,68.5,58.4,45.7,43.2,33.9,29.7,72,42,25,30.32,30.15,15,4,15,0.00
2013-4-29,59.2,56.9,54.1,56.8,51.2,31.3,93,83,36,30.18,30.09,12,4,12,0.39
2013-4-30,66.2,58.6,51.6,54.1,49.1,36.6,96,73,45,30.30,30.12,15,4,15,0.16
2013-5-1,70.9,57.4,43.2,40.1,35.4,28.7,77,48,25,30.44,30.30,15,4,15,0.00
2013-5-2,70.3,57.5,43.9,43.2,38.4,34.7,81,52,28,30.44,30.32,15,3,15,0.00
2013-5-3,67.8,56.9,46.2,42.8,37.4,32.8,82,50,34,30.41,30.32,15,4,15,0.00
2013-5-4,69.8,57.0,46.4,41.0,36.8,29.5,77,50,28,30.35,30.21,17,4,17,0.00
2013-5-5,65.7,54.6,45.9,38.7,35.5,31.0,70,50,34,30.26,30.18,15,4,15,0.00
2013-5-6,65.1,55.6,45.5,53.9,46.1,37.2,88,71,57,30.24,30.09,16,5,16,0.00
2013-5-7,64.4,60.9,57.7,62.2,57.9,52.8,100,90,76,30.12,29.97,16,7,16,0.47
2013-5-8,73.4,63.6,59.0,57.7,52.5,45.8,91,69,41,30.03,29.94,13,3,13,0.00
2013-5-9,75.9,64.5,55.0,53.7,49.8,43.9,91,62,35,30.00,29.91,13,3,13,0.00
2013-5-10,83.3,69.5,54.9,61.0,51.9,47.2,85,58,32,30.03,29.88,20,3,20,1.06
2013-5-11,79.2,67.8,63.9,63.7,60.2,49.1,93,78,39,29.94,29.70,26,2,26,0.35
2013-5-12,64.9,60.3,51.6,62.2,36.5,20.4,92,46,23,30.03,29.73,26,7,26,0.00
2013-5-13,60.3,52.3,44.4,28.4,24.0,19.4,53,34,24,30.18,30.03,18,5,18,0.00
2013-5-14,64.4,51.9,37.2,43.6,28.2,21.8,68,43,25,30.24,30.06,17,3,17,0.00
2013-5-15,78.3,65.5,54.0,57.5,48.9,37.6,70,56,37,30.09,29.73,6,1,6,0.00
2013-5-16,82.2,72.1,63.1,59.4,53.1,48.6,80,54,33,29.91,29.76,19,4,19,0.00
2013-5-17,81.5,70.7,57.6,56.2,42.3,33.3,76,40,22,30.18,29.91,14,3,14,0.00
2013-5-18,72.5,65.4,59.9,57.2,47.7,41.0,89,55,35,30.24,30.18,12,3,12,0.00
2013-5-19,67.1,63.6,59.7,62.9,60.7,56.6,100,90,81,30.24,30.12,9,3,9,0.04
2013-5-20,82.4,71.9,64.9,65.9,61.7,56.0,95,72,44,30.15,30.00,9,2,9,0.00
2013-5-21,86.4,75.1,66.6,66.5,62.8,59.4,92,68,42,30.00,29.85,9,2,9,0.00
2013-5-22,88.3,78.1,69.1,68.3,63.4,53.5,90,63,38,29.91,29.82,13,3,13,0.00
2013-5-23,82.4,71.6,66.4,64.5,61.4,55.5,87,71,42,29.88,29.76,12,3,12,0.63
2013-5-24,66.7,58.7,50.2,62.7,45.2,26.3,90,63,39,30.15,29.79,20,8,20,0.08
2013-5-25,69.8,56.5,45.3,32.4,28.0,23.8,50,34,24,30.15,30.06,26,9,26,0.00
2013-5-26,75.6,60.7,48.4,34.5,30.4,24.9,47,33,22,30.24,30.12,20,6,20,0.00
2013-5-27,73.6,61.9,46.8,44.4,35.9,29.9,73,41,24,30.32,30.18,12,2,12,0.00
2013-5-28,74.1,65.8,58.8,62.2,54.6,41.3,89,68,49,30.24,30.09,7,1,7,0.04
2013-5-29,89.8,78.0,64.6,67.5,58.7,52.0,93,57,30,30.12,30.03,15,4,15,0.00
2013-5-30,93.0,81.3,68.9,63.6,58.3,52.5,74,48,26,30.18,30.09,12,2,12,0.00
2013-5-31,92.1,80.9,67.3,63.1,56.8,47.8,80,48,23,30.15,30.00,15,3,15,0.00
2013-6-1,92.8,81.9,68.5,61.8,57.3,53.3,72,45,29,30.03,29.91,10,3,10,0.00
2013-6-2,86.7,78.3,70.7,67.8,59.9,54.3,86,55,39,29.91,29.82,13,4,13,0.31
2013-6-3,82.6,73.7,67.1,68.3,61.1,47.9,91,68,33,29.94,29.82,13,2,13,0.35
2013-6-4,79.0,67.9,58.1,48.3,40.5,35.2,59,38,24,30.15,29.94,14,4,14,0.00
2013-6-5,81.9,68.8,55.0,54.6,44.4,35.9,77,45,24,30.21,30.06,14,2,14,0.00
2013-6-6,74.7,69.0,65.1,63.5,53.1,44.0,88,59,39,30.09,29.88,12,2,12,0.28
2013-6-7,71.4,68.6,65.7,70.9,66.6,62.0,100,94,86,29.88,29.59,13,4,13,1.93
2013-6-8,84.0,71.9,64.9,64.6,57.5,49.6,92,64,34,30.09,29.67,14,3,14,0.00
2013-6-9,83.7,73.2,63.5,62.4,57.6,48.2,83,61,35,30.21,30.09,10,1,10,0.00
2013-6-10,78.1,72.9,69.1,73.3,68.3,62.3,94,86,69,30.12,29.79,14,2,14,2.48
2013-6-11,83.7,75.4,67.5,70.0,59.8,53.6,94,62,37,29.82,29.76,20,6,20,0.00
2013-6-12,87.1,77.1,67.5,64.0,58.9,52.9,76,56,32,29.85,29.79,15,3,15,0.00
2013-6-13,87.3,75.2,68.9,68.8,60.7,49.8,86,62,33,29.82,29.47,18,6,18,0.47
2013-6-14,83.3,69.3,60.6,53.7,46.9,39.9,78,48,25,29.97,29.59,21,7,21,0.04
2013-6-15,87.1,72.6,59.7,57.2,47.4,38.5,77,44,21,30.09,29.97,13,3,13,0.00
2013-6-16,84.2,73.2,62.8,60.8,54.8,47.4,74,55,32,30.06,29.88,23,2,23,0.00
2013-6-17,88.9,78.4,68.2,63.1,57.4,52.5,72,51,31,29.97,29.85,13,3,13,0.00
2013-6-18,78.4,72.1,65.7,68.9,62.5,54.2,87,72,47,29.94,29.82,10,1,10,0.08
2013-6-19,80.2,70.8,64.4,65.3,53.5,44.6,88,58,31,30.15,29.91,15,3,15,0.00
2013-6-20,83.3,72.3,60.4,62.3,51.4,44.6,84,51,28,30.30,30.15,10,2,10,0.00
2013-6-21,87.1,73.6,59.5,55.3,46.3,39.7,70,40,22,30.32,30.24,12,2,12,0.00
2013-6-22,88.2,76.4,63.0,61.9,55.6,52.1,81,51,33,30.26,30.15,9,3,9,0.00
2013-6-23,89.1,77.7,67.8,71.6,63.1,57.6,80,62,42,30.18,30.06,9,1,9,0.04
2013-6-24,93.6,81.0,70.5,70.1,60.6,51.6,84,53,27,30.12,30.03,12,2,12,0.00
2013-6-25,93.6,81.6,69.1,66.3,59.7,51.8,79,51,29,30.03,29.88,29,4,29,0.12
2013-6-26,91.8,78.4,68.5,68.6,63.5,56.9,84,63,32,29.91,29.79,14,2,14,0.08
2013-6-27,87.1,78.3,70.7,72.9,66.5,60.4,90,68,44,29.82,29.59,10,3,10,0.04
2013-6-28,89.4,78.7,72.1,67.7,62.4,55.1,81,60,33,29.65,29.50,20,3,20,0.00
2013-6-29,89.6,79.4,68.2,68.6,58.0,48.2,78,51,25,29.70,29.53,13,3,13,0.00
2013-6-30,86.5,78.7,73.8,75.8,67.3,61.2,82,69,46,29.85,29.70,12,2,12,0.12
2013-7-1,82.8,78.5,75.0,72.5,67.9,62.3,83,70,53,30.00,29.85,12,3,12,0.00
2013-7-2,87.1,78.5,75.0,70.4,66.8,61.7,82,68,45,30.18,30.00,15,4,15,0.00
2013-7-3,88.7,76.9,72.9,74.6,69.4,63.2,90,79,43,30.24,30.18,13,2,13,1.46
2013-7-4,90.9,81.0,73.2,73.2,68.4,62.0,95,68,40,30.26,30.18,12,3,12,0.00
2013-7-5,92.8,83.6,74.8,71.2,65.1,58.4,83,56,33,30.24,30.12,13,4,13,0.00
2013-7-6,94.6,85.2,75.0,73.3,63.8,57.2,82,51,31,30.18,30.06,13,3,13,0.00
2013-7-7,94.3,82.2,73.4,66.5,63.0,57.2,72,54,32,30.12,30.00,20,4,20,0.00
2013-7-8,89.8,79.4,72.0,68.3,61.4,52.9,85,57,31,30.09,30.03,14,3,14,0.00
2013-7-9,85.6,79.8,74.1,68.3,63.7,59.3,73,59,44,30.12,30.00,13,2,13,0.00
2013-7-10,89.8,81.4,75.4,71.0,66.8,60.3,83,63,39,30.03,29.85,13,3,13,0.00
2013-7-11,86.7,78.5,74.1,69.2,63.4,54.0,83,62,34,29.94,29.85,12,3,12,0.00
2013-7-12,74.8,70.7,67.6,68.3,64.8,57.5,91,82,59,30.03,29.91,14,4,14,1.18
2013-7-13,88.3,76.8,69.6,71.5,67.4,62.0,96,75,44,30.30,30.00,7,1,7,0.20
2013-7-14,91.4,81.2,71.8,75.7,67.2,59.4,94,66,37,30.35,30.26,8,1,8,0.00
2013-7-15,95.7,83.6,71.8,74.9,64.0,57.6,86,56,30,30.32,30.18,12,3,12,0.00
2013-7-16,94.3,88.9,78.6,73.3,70.3,67.4,83,56,44,30.24,30.18,13,4,13,0.00
2013-7-17,95.4,84.8,73.9,77.9,71.6,65.4,92,67,40,30.24,30.09,13,2,13,0.00
2013-7-18,97.2,85.8,75.9,78.7,75.3,72.9,92,72,48,30.12,30.00,10,2,10,0.00
2013-7-19,98.2,86.9,76.1,78.6,74.7,69.1,89,69,45,30.03,29.85,16,3,16,0.16
2013-7-20,94.5,83.2,74.5,75.9,72.1,68.7,91,71,48,29.91,29.79,14,3,14,0.00
2013-7-21,88.9,79.8,72.7,72.4,70.4,67.4,91,74,51,29.94,29.88,15,2,15,0.00
2013-7-22,90.0,80.4,72.9,77.9,73.8,71.0,96,81,56,29.94,29.73,13,2,13,0.28
2013-7-23,88.0,79.4,72.5,74.7,70.6,65.6,97,76,50,29.76,29.65,16,3,16,0.08
2013-7-24,84.0,76.5,70.0,68.8,64.7,55.8,88,68,50,29.94,29.67,15,3,15,0.00
2013-7-25,78.3,69.0,61.0,63.7,57.2,51.5,84,66,56,30.06,29.91,15,5,15,0.00
2013-7-26,84.9,74.0,64.9,64.6,61.6,57.2,91,68,40,30.09,30.03,13,2,13,0.00
2013-7-27,86.9,75.3,66.4,72.2,66.9,62.1,93,77,51,30.06,29.94,14,2,14,0.12
2013-7-28,86.4,77.0,70.5,72.2,68.9,64.3,94,78,50,30.00,29.91,13,2,13,0.00
2013-7-29,82.8,73.6,65.3,66.9,58.9,53.4,91,63,39,30.18,30.00,13,4,13,0.00
2013-7-30,82.6,72.1,60.8,62.9,58.6,55.2,89,65,42,30.24,30.15,13,3,13,0.00
2013-7-31,81.0,73.3,64.0,67.8,64.0,60.9,91,74,56,30.18,30.03,9,1,9,0.00
2013-8-1,83.5,74.6,69.1,73.9,69.8,66.1,100,86,60,30.03,29.82,9,2,9,0.39
2013-8-2,86.2,76.7,66.4,71.3,64.9,60.0,96,70,45,29.97,29.85,17,3,17,0.00
2013-8-3,77.2,70.2,66.2,67.6,65.8,62.8,94,86,63,30.00,29.94,9,1,9,0.16
2013-8-4,81.0,71.1,62.2,64.8,58.4,51.6,98,68,40,30.06,29.94,20,4,20,0.00
2013-8-5,80.1,69.5,59.2,60.3,57.1,53.6,88,67,44,30.12,30.03,10,2,10,0.00
2013-8-6,69.3,67.2,64.4,68.4,65.1,59.8,100,93,79,30.09,30.03,10,1,10,0.04
2013-8-7,81.0,73.1,68.2,74.5,70.9,68.2,100,94,73,30.09,30.03,9,1,9,0.35
2013-8-8,88.2,77.4,70.0,75.7,72.5,68.0,100,87,58,30.09,30.00,13,2,13,1.14
2013-8-9,88.3,80.3,75.0,77.3,74.4,71.0,100,83,60,30.00,29.88,13,3,13,0.08
2013-8-10,84.7,77.4,71.6,71.4,66.6,60.5,91,71,48,30.12,29.97,13,2,13,0.00
2013-8-11,85.8,75.7,67.8,70.4,66.6,63.2,93,75,53,30.15,30.03,10,2,10,0.00
2013-8-12,87.8,77.6,69.6,72.1,68.7,63.8,95,76,46,30.06,29.94,13,2,13,0.00
2013-8-13,86.0,76.7,72.5,75.0,70.1,62.0,100,81,55,29.94,29.76,10,2,10,0.16
2013-8-19,78.3,74.5,69.6,68.0,65.8,63.1,88,75,62,30.12,30.09,7,2,7,0.16
2013-8-20,88.0,75.4,63.9,69.2,65.8,61.8,94,75,43,30.18,30.12,12,2,12,0.00
2013-8-21,89.1,77.4,66.7,74.8,69.7,64.0,93,79,55,30.21,30.09,9,2,9,0.00
2013-8-22,87.4,79.5,72.1,73.3,69.1,64.7,91,72,48,30.12,29.97,15,4,15,0.00
2013-8-23,76.8,71.8,63.7,68.0,64.5,60.1,89,78,61,30.15,29.94,13,2,13,0.00
2013-8-24,81.0,69.3,59.0,62.3,58.6,54.0,93,71,42,30.38,30.12,13,3,13,0.00
2013-8-25,81.5,69.9,59.2,65.5,57.6,51.3,94,68,40,30.44,30.30,9,2,9,0.00
2013-8-26,86.7,74.3,61.7,64.5,60.3,54.3,85,63,46,30.32,30.00,15,3,15,0.00
2013-8-27,90.0,80.0,72.7,71.4,67.7,62.6,84,67,48,30.00,29.91,14,3,14,0.00
2013-8-28,83.1,76.8,72.5,74.1,71.1,69.0,94,83,63,29.94,29.85,13,3,13,0.00
2013-8-29,84.6,76.4,71.6,72.2,69.4,66.6,96,80,56,30.03,29.88,13,4,13,0.00
2013-8-30,88.7,78.4,70.9,70.8,67.9,64.3,86,72,48,30.06,29.88,12,3,12,0.00
2013-8-31,89.4,79.9,71.2,73.9,70.5,67.8,92,74,52,29.94,29.79,9,3,9,0.00
2013-9-1,91.2,80.9,71.2,73.9,70.7,66.9,90,73,51,29.88,29.79,12,2,12,0.00
2013-9-2,90.9,81.6,74.3,74.6,70.2,66.2,90,70,46,29.82,29.73,10,2,10,0.00
2013-9-3,83.8,77.3,68.0,71.8,61.8,52.4,87,61,38,29.97,29.73,16,5,16,0.00
2013-9-4,82.2,70.0,59.2,56.7,53.2,48.7,85,58,36,30.09,29.97,13,3,13,0.00
2013-9-5,83.1,70.2,59.9,61.3,57.2,51.6,85,65,43,30.15,30.00,15,3,15,0.00
2013-9-6,75.0,64.2,55.9,53.0,48.1,43.9,78,57,38,30.26,30.15,13,3,13,0.00
2013-9-7,80.8,66.3,52.7,61.9,54.5,48.9,89,68,38,30.18,29.94,10,2,10,0.00
2013-9-8,84.9,73.7,65.3,64.8,61.9,51.5,89,68,49,30.09,29.88,16,3,16,0.00
2013-9-9,78.8,67.6,60.1,67.6,54.1,46.0,83,62,52,30.24,30.09,10,3,10,0.00
2013-9-10,90.5,79.7,72.0,73.5,70.7,67.4,91,76,52,30.18,30.09,9,3,9,0.00
2013-9-11,93.2,82.5,72.3,75.4,72.1,70.0,94,73,51,30.18,30.03,9,2,9,0.00
2013-9-12,89.1,76.8,70.9,74.4,70.5,68.8,96,82,54,30.03,29.76,10,2,10,0.16
2013-9-13,76.6,69.9,63.7,69.4,57.6,49.1,95,68,40,29.94,29.70,15,5,15,0.00
2013-9-14,68.2,60.3,52.3,50.4,47.5,45.3,86,64,46,30.21,29.94,15,4,15,0.00
2013-9-15,75.2,62.0,48.9,57.9,51.6,46.6,96,72,42,30.26,30.12,10,2,10,0.00
2013-9-16,72.9,65.0,58.1,60.3,55.5,51.2,90,73,50,30.26,30.06,16,3,16,0.00
2013-9-17,67.3,57.4,48.4,53.9,43.7,39.7,86,62,39,30.47,30.26,15,5,15,0.00
2013-9-18,70.0,56.8,45.7,52.1,45.9,42.6,93,70,39,30.38,30.24,10,1,10,0.00
2013-9-19,76.5,61.4,48.9,58.1,52.6,46.7,97,75,50,30.24,30.12,10,2,10,0.00
2013-9-20,78.1,65.8,54.3,61.1,56.9,52.6,97,75,51,30.12,29.97,10,2,10,0.00
2013-9-21,77.5,67.5,60.6,67.2,61.5,57.1,98,82,56,30.00,29.70,14,3,14,0.91
2013-9-22,70.7,63.3,54.1,63.2,54.1,47.7,98,75,46,29.97,29.73,17,3,17,0.56
2013-9-23,66.2,57.5,50.9,50.7,45.7,40.3,89,66,48,30.12,29.97,16,4,16,0.00
2013-9-24,71.2,56.6,45.1,48.5,45.1,42.3,91,69,39,30.15,29.97,13,2,13,0.00
2013-9-25,73.6,58.5,46.9,53.0,48.0,43.9,93,71,39,30.03,29.91,13,2,13,0.00
2013-9-26,72.5,61.6,52.5,54.2,51.8,50.0,92,73,46,30.09,29.97,14,2,14,0.00
2013-9-27,71.8,62.9,56.8,60.1,56.3,53.0,94,80,56,30.26,30.09,9,1,9,0.00
2013-9-28,71.6,61.9,55.8,57.9,53.3,50.4,94,75,50,30.32,30.24,12,2,12,0.00
2013-9-29,73.2,60.5,51.1,57.2,52.2,48.7,94,76,49,30.24,30.09,13,2,13,0.00
2013-9-30,74.7,61.2,51.4,56.7,52.1,49.5,94,75,44,30.12,30.00,9,2,9,0.00
2013-10-1,80.4,65.5,54.1,60.3,56.2,51.0,94,74,48,30.09,29.97,15,2,15,0.00
2013-10-2,82.6,68.8,56.8,62.2,58.9,54.4,96,73,46,30.09,30.00,14,3,14,0.00
2013-10-3,82.0,69.9,59.9,65.3,61.6,57.4,94,77,52,30.15,30.06,9,1,9,0.00
2013-10-4,85.3,71.6,61.0,68.3,63.5,59.5,97,78,49,30.12,30.03,9,1,9,0.00
2013-10-5,87.1,74.0,65.1,67.9,64.5,62.1,95,75,45,30.12,30.00,9,2,9,0.00
2013-10-6,84.6,73.5,66.4,71.1,66.9,63.9,100,81,55,30.06,29.94,12,3,12,0.00
2013-10-7,75.0,67.3,57.0,71.7,63.3,45.4,96,87,63,30.06,29.82,17,4,17,0.87
2013-10-8,66.7,56.8,48.4,50.7,47.3,44.6,93,72,46,30.32,30.06,17,3,17,0.00
2013-10-9,61.2,56.4,51.6,52.8,48.7,44.0,91,76,63,30.35,30.24,15,5,15,0.00
2013-10-10,58.6,56.3,53.8,58.6,55.4,51.4,100,97,83,30.24,30.03,15,6,15,2.32
2013-10-11,63.1,60.6,57.7,63.1,60.4,57.7,100,100,95,30.03,29.97,18,6,18,2.01
2013-10-12,68.2,63.8,59.7,62.6,57.7,52.3,100,82,59,30.21,30.03,15,6,15,0.20
2013-10-13,66.2,60.9,56.1,59.3,55.6,51.4,97,83,64,30.38,30.21,15,5,15,0.04
2013-10-14,68.0,59.9,54.1,53.3,51.8,49.4,89,76,54,30.38,30.26,13,2,13,0.00
2013-10-15,70.3,58.9,51.8,55.8,49.7,42.1,100,75,39,30.26,30.12,10,1,10,0.00
2013-10-16,68.5,62.3,57.7,61.8,58.0,52.3,96,86,75,30.15,29.94,7,1,7,0.00
2013-10-17,73.0,66.3,61.7,65.2,62.5,53.4,100,89,64,29.94,29.76,15,2,15,0.00
2013-10-18,64.9,58.0,48.6,53.8,43.9,40.9,84,60,44,30.06,29.82,17,5,17,0.00
2013-10-19,66.0,54.9,45.0,57.5,48.8,41.8,93,81,53,30.06,29.82,13,2,13,0.04
2013-10-20,61.2,52.6,44.8,50.0,38.5,35.1,86,60,42,30.15,29.88,20,6,20,0.00
2013-10-21,65.5,52.0,39.2,47.8,41.8,36.1,93,71,42,30.18,30.00,13,3,13,0.00
2013-10-22,62.2,53.7,46.8,50.9,45.3,37.9,94,74,53,30.00,29.85,10,2,10,0.00
2013-10-23,57.2,49.7,45.1,39.9,36.4,32.9,72,61,44,29.91,29.70,14,4,14,0.00
2013-10-24,52.0,44.9,39.4,34.5,31.2,27.6,77,59,45,30.15,29.91,20,7,20,0.00
2013-10-25,54.9,44.0,35.8,36.9,31.3,28.2,80,62,45,30.32,30.12,18,5,18,0.00
2013-10-26,55.0,45.3,34.3,34.7,30.8,27.4,79,58,43,30.32,29.97,17,4,17,0.00
2013-10-27,58.3,48.7,39.4,36.9,34.0,31.5,80,58,43,30.21,29.97,17,3,17,0.00
2013-10-28,61.5,46.5,34.5,42.4,36.6,31.0,89,71,44,30.32,30.18,10,1,10,0.00
2013-10-29,60.6,48.0,37.6,43.5,39.7,34.3,89,75,52,30.41,30.30,12,1,12,0.00
2013-10-30,63.3,53.8,46.0,57.2,50.8,41.8,100,90,73,30.35,30.18,10,1,10,0.16
2013-10-31,66.9,59.8,52.7,61.3,57.2,50.7,100,91,76,30.24,29.82,10,2,10,0.00
2013-11-1,71.1,64.6,56.3,64.4,58.2,51.8,95,81,52,29.82,29.61,20,4,20,0.39
2013-11-2,67.3,56.7,49.3,53.7,46.4,38.7,94,71,44,29.88,29.67,18,4,18,0.00
2013-11-3,55.2,47.9,38.1,43.5,33.8,22.9,80,59,39,30.50,29.88,22,6,22,0.00
2013-11-4,47.3,38.7,31.3,27.1,23.9,20.7,71,56,42,30.65,30.47,18,3,18,0.00
2013-11-5,58.5,47.8,35.6,47.4,38.3,27.5,82,70,58,30.62,30.50,9,2,9,0.00
2013-11-6,64.8,55.9,46.4,52.1,48.9,43.3,93,78,59,30.50,30.09,13,4,13,0.00
2013-11-7,60.8,53.8,43.5,56.7,46.4,25.1,100,77,48,30.09,29.88,23,6,23,0.08
2013-11-8,50.4,42.6,33.3,31.9,27.2,24.4,80,55,44,30.32,30.09,20,6,20,0.00
2013-11-9,52.7,42.6,30.2,31.9,28.5,24.3,82,59,44,30.38,30.03,15,3,15,0.00
2013-11-10,60.1,49.1,41.0,36.7,30.8,27.2,60,50,40,30.24,29.97,24,7,24,0.00
2013-11-11,55.9,47.1,35.1,35.2,31.1,26.9,75,54,44,30.30,30.03,12,4,12,0.00
2013-11-12,50.2,40.5,31.1,36.7,24.4,15.2,64,53,46,30.41,30.00,23,7,23,0.00
2013-11-13,41.9,34.4,28.0,23.3,19.7,15.3,68,55,46,30.47,30.38,22,5,22,0.00
2013-11-14,56.3,40.8,28.6,26.8,21.4,16.6,63,48,32,30.38,30.24,13,2,13,0.00
2013-11-15,58.1,42.5,30.2,37.8,29.7,22.5,78,62,38,30.30,30.21,9,1,9,0.00
2013-11-16,54.3,49.1,44.2,49.9,45.5,38.0,97,87,75,30.35,30.26,9,2,9,0.08
2013-11-17,61.5,55.9,50.5,59.2,54.2,50.0,100,94,83,30.26,29.79,13,4,13,0.00
2013-11-18,65.5,59.0,49.5,62.1,39.3,27.0,100,52,29,29.94,29.70,22,9,22,0.12
2013-11-19,49.5,43.8,34.2,29.4,26.6,23.4,66,51,44,30.38,29.94,20,8,20,0.00
2013-11-20,44.1,35.0,28.8,26.7,22.6,20.0,78,61,39,30.59,30.35,13,2,13,0.00
2013-11-21,50.4,40.5,27.9,40.3,32.0,22.4,82,72,61,30.59,30.41,7,1,7,0.00
2013-11-22,61.2,53.5,46.9,52.2,46.3,39.8,87,77,64,30.41,30.00,18,3,18,0.00
2013-11-23,55.9,43.1,31.3,50.2,27.4,14.3,81,54,45,30.18,30.03,22,11,22,0.00
2013-11-24,31.6,27.4,24.1,14.9,9.4,5.7,55,47,36,30.50,30.18,29,12,29,0.00
2013-11-25,37.0,29.1,21.9,17.5,12.6,8.1,57,50,40,30.59,30.35,13,5,13,0.00
2013-11-26,50.0,36.9,33.3,50.0,29.1,16.1,100,76,48,30.35,29.59,17,4,17,1.46
2013-11-27,50.7,39.0,30.6,50.7,33.8,16.3,100,82,55,30.00,29.53,28,10,28,0.67
2013-11-28,36.5,31.5,27.9,21.9,16.9,14.0,65,54,48,30.50,30.00,28,7,28,0.00
2013-11-29,40.1,31.5,23.9,22.8,19.8,17.6,78,62,48,30.74,30.47,17,3,17,0.00
2013-11-30,37.8,30.8,23.7,25.2,19.6,14.1,73,63,52,30.74,30.38,7,2,7,0.00
2013-12-1,46.9,36.9,26.4,32.8,27.3,21.1,84,69,50,30.38,30.03,8,1,8,0.00
2013-12-2,48.0,42.4,39.0,36.0,34.1,32.6,82,73,58,30.03,29.88,6,1,6,0.00
2013-12-3,54.9,44.2,36.9,38.5,34.8,30.3,84,71,52,30.03,29.91,7,1,7,0.00
2013-12-4,53.8,45.4,36.9,48.1,40.0,31.1,95,82,66,30.12,30.00,7,1,7,0.00
2013-12-5,59.5,54.5,49.5,58.7,53.5,47.9,100,96,88,30.12,29.94,9,2,9,0.00
2013-12-6,62.6,49.8,37.4,62.6,48.2,35.6,100,94,87,30.18,29.91,17,6,17,0.94
2013-12-7,42.3,37.4,31.6,36.8,29.0,19.3,95,73,57,30.53,30.12,18,6,18,0.20
2013-12-8,32.0,29.1,27.0,31.2,22.6,16.4,97,78,59,30.59,30.30,12,4,12,0.04
2013-12-9,39.4,35.4,32.0,36.6,33.6,31.2,97,93,81,30.30,30.03,9,1,9,0.51
2013-12-10,37.6,33.0,25.3,34.7,29.2,18.4,97,86,69,30.24,30.00,13,1,13,0.00
2013-12-11,36.0,27.3,21.6,20.7,17.5,14.6,80,67,50,30.41,30.21,9,1,9,0.04
2013-12-12,28.9,24.2,20.3,18.9,12.5,8.4,84,61,49,30.44,30.24,14,4,14,0.00
2013-12-13,39.2,29.8,19.2,22.4,15.8,9.2,71,56,46,30.32,30.21,17,4,17,0.00
2013-12-14,38.7,34.5,30.4,37.2,28.7,21.9,100,81,56,30.35,29.70,16,4,16,0.83
2013-12-15,43.7,36.3,31.6,34.3,28.5,20.4,97,75,57,29.94,29.65,28,6,28,0.20
2013-12-16,35.1,32.6,29.1,25.4,20.2,14.5,69,60,54,30.21,29.94,13,5,13,0.00
2013-12-17,36.1,32.5,30.0,28.4,23.8,20.5,84,70,61,30.21,29.97,9,3,9,0.00
2013-12-18,37.4,32.4,27.5,26.0,21.6,18.8,84,65,50,30.24,30.00,22,5,22,0.00
2013-12-19,51.6,35.4,24.3,31.8,25.5,18.6,87,69,46,30.21,30.06,10,2,10,0.00
2013-12-20,55.4,45.2,32.5,42.3,33.8,28.8,88,66,45,30.12,30.00,13,4,13,0.00
2013-12-21,67.6,58.9,51.1,56.7,48.8,41.1,87,70,59,30.03,29.91,20,6,20,0.00
2013-12-22,68.5,62.9,57.7,63.3,59.8,53.9,97,90,81,30.03,29.85,20,6,20,0.04
2013-12-23,61.2,54.5,39.0,60.6,50.0,26.3,100,86,59,30.24,29.91,18,5,18,0.91
2013-12-24,39.6,33.8,24.3,27.8,20.1,8.7,73,57,49,30.44,30.18,25,8,25,0.00
2013-12-25,31.5,25.7,20.5,17.6,11.9,7.8,67,56,49,30.56,30.41,10,4,10,0.00
2013-12-26,42.6,31.2,22.6,25.8,21.3,15.8,81,67,49,30.41,30.24,15,3,15,0.00
2013-12-27,47.3,34.1,23.9,25.0,20.8,17.9,79,60,34,30.41,30.30,15,2,15,0.00
2013-12-28,55.8,39.8,25.3,32.0,25.8,20.1,84,59,38,30.35,30.12,15,2,15,0.00
2013-12-29,47.3,42.8,38.8,47.3,38.7,27.9,100,86,62,30.12,29.56,15,3,15,0.98
2013-12-30,45.1,38.7,31.6,40.6,29.9,17.0,95,72,54,30.21,29.82,20,5,20,0.00
2013-12-31,41.7,33.2,27.3,26.7,18.7,15.1,62,55,48,30.32,30.09,25,6,25,0.00
2014-1-1,44.8,33.0,24.3,28.1,22.3,15.8,80,65,50,30.41,30.15,15,2,15,0.00
2014-1-2,36.5,32.4,25.7,32.2,28.5,22.4,94,86,76,30.15,29.65,13,2,13,0.00